| time (UTC) | temp F | wind direction | speed MPH | gust MPH | rain 1hr in | rain 24hr in | rain mn in | humidity % | barometer mb |
| 20260503032531 | 49 | 0 | 5.0 | 9.0 | 0.00 | 0.00 | 0.00 | 73 | 1004.9 |
| 20260503031530 | 49 | 338 | 6.0 | 12.0 | 0.00 | 0.00 | 0.00 | 73 | 1005.0 |
| 20260503030530 | 49 | 338 | 5.0 | 12.0 | 0.00 | 0.00 | 0.00 | 73 | 1004.9 |
| 20260503025530 | 49 | 0 | 4.0 | 9.0 | 0.00 | 0.00 | 0.00 | 73 | 1004.9 |
| 20260503024550 | 49 | 0 | 6.0 | 10.0 | 0.00 | 0.00 | 0.00 | 73 | 1004.8 |
| 20260503023530 | 49 | 0 | 4.0 | 9.0 | 0.00 | 0.00 | 0.00 | 72 | 1004.8 |
| 20260503023028 | 49 | 0 | 4.0 | 9.0 | 0.00 | 0.00 | 0.00 | 72 | 1004.8 |
| 20260503021531 | 50 | 0 | 5.0 | 10.0 | 0.00 | 0.00 | 0.00 | 71 | 1004.7 |
| 20260503020531 | 50 | 0 | 4.0 | 9.0 | 0.00 | 0.00 | 0.00 | 70 | 1004.7 |
| 20260503015530 | 49 | 23 | 5.0 | 11.0 | 0.00 | 0.00 | 0.00 | 71 | 1004.7 |
| 20260503014532 | 49 | 338 | 4.0 | 8.0 | 0.00 | 0.00 | 0.00 | 73 | 1004.6 |
| 20260503013531 | 48 | 338 | 2.0 | 5.0 | 0.00 | 0.00 | 0.00 | 74 | 1004.6 |
| 20260503012531 | 47 | 338 | 2.0 | 8.0 | 0.00 | 0.00 | 0.00 | 77 | 1004.7 |
| 20260503011551 | 47 | 315 | 3.0 | 8.0 | 0.00 | 0.00 | 0.00 | 77 | 1004.7 |
| 20260503010530 | 47 | 0.0 | 0.0 | 0.00 | 0.00 | 0.00 | 77 | 1004.8 | |
| 20260503005531 | 47 | 0.0 | 0.0 | 0.00 | 0.00 | 0.00 | 76 | 1004.7 | |
| 20260503004530 | 48 | 0.0 | 0.0 | 0.00 | 0.00 | 0.00 | 76 | 1004.8 | |
| 20260503003531 | 48 | 0.0 | 0.0 | 0.00 | 0.00 | 0.00 | 73 | 1004.9 | |
| 20260503002530 | 48 | 0.0 | 0.0 | 0.00 | 0.00 | 0.00 | 74 | 1004.9 | |
| 20260503001550 | 48 | 0.0 | 0.0 | 0.00 | 0.00 | 0.00 | 75 | 1004.8 | |
| 20260503000550 | 48 | 0.0 | 0.0 | 0.00 | 0.00 | 0.00 | 72 | 1004.6 | |
| 20260502235531 | 49 | 0.0 | 0.0 | 0.00 | 0.00 | 0.00 | 73 | 1004.6 | |
| 20260502234531 | 49 | 0.0 | 0.0 | 0.00 | 0.00 | 0.00 | 71 | 1004.5 | |
| 20260502233531 | 49 | 0.0 | 0.0 | 0.00 | 0.00 | 0.00 | 70 | 1004.5 | |
| 20260502232531 | 49 | 0.0 | 0.0 | 0.00 | 0.00 | 0.00 | 70 | 1004.6 | |
| 20260502231550 | 49 | 0.0 | 0.0 | 0.00 | 0.00 | 0.00 | 69 | 1004.5 | |
| 20260502230554 | 49 | 0.0 | 0.0 | 0.00 | 0.00 | 0.00 | 69 | 1004.6 | |
| 20260502225530 | 50 | 0.0 | 0.0 | 0.00 | 0.00 | 0.00 | 68 | 1004.7 | |
| 20260502224530 | 50 | 0.0 | 0.0 | 0.00 | 0.00 | 0.00 | 67 | 1005.0 | |
| 20260502223531 | 50 | 0.0 | 0.0 | 0.00 | 0.00 | 0.00 | 68 | 1004.8 | |
| 20260502222530 | 50 | 0.0 | 0.0 | 0.00 | 0.00 | 0.00 | 67 | 1005.0 | |
| 20260502221530 | 50 | 0.0 | 0.0 | 0.00 | 0.00 | 0.00 | 68 | 1005.2 | |
| 20260502220529 | 50 | 0.0 | 0.0 | 0.00 | 0.00 | 0.00 | 67 | 1005.3 | |
| 20260502215530 | 50 | 0.0 | 0.0 | 0.00 | 0.00 | 0.00 | 66 | 1005.4 | |
| 20260502214530 | 51 | 0.0 | 0.0 | 0.00 | 0.00 | 0.00 | 65 | 1005.4 | |
| 20260502213530 | 51 | 0.0 | 0.0 | 0.00 | 0.00 | 0.00 | 64 | 1005.5 | |
| 20260502212530 | 52 | 0.0 | 0.0 | 0.00 | 0.00 | 0.00 | 62 | 1005.6 | |
| 20260502211550 | 52 | 0.0 | 0.0 | 0.00 | 0.00 | 0.00 | 59 | 1005.8 | |
| 20260502210532 | 53 | 0.0 | 0.0 | 0.00 | 0.00 | 0.00 | 58 | 1005.8 | |
| 20260502205531 | 53 | 0.0 | 0.0 | 0.00 | 0.00 | 0.00 | 56 | 1005.6 | |
| 20260502204530 | 54 | 0.0 | 4.0 | 0.00 | 0.00 | 0.00 | 56 | 1005.7 | |
| 20260502203530 | 54 | 293 | 1.0 | 4.0 | 0.00 | 0.00 | 0.00 | 53 | 1005.8 |
| 20260502202532 | 54 | 270 | 1.0 | 7.0 | 0.00 | 0.00 | 0.00 | 55 | 1005.8 |
| 20260502201532 | 52 | 270 | 4.0 | 8.0 | 0.00 | 0.00 | 0.00 | 59 | 1006.1 |
| 20260502200531 | 48 | 293 | 3.0 | 8.0 | 0.00 | 0.00 | 0.00 | 67 | 1006.2 |
| 20260502195530 | 48 | 270 | 1.0 | 3.0 | 0.00 | 0.00 | 0.00 | 69 | 1006.0 |
| 20260502194530 | 48 | 0.0 | 0.0 | 0.00 | 0.00 | 0.00 | 66 | 1006.0 | |
| 20260502193530 | 49 | 0.0 | 0.0 | 0.00 | 0.00 | 0.00 | 65 | 1006.1 | |
| 20260502192530 | 50 | 0.0 | 0.0 | 0.00 | 0.00 | 0.00 | 64 | 1006.1 | |
| 20260502191550 | 51 | 0.0 | 2.0 | 0.00 | 0.00 | 0.00 | 61 | 1006.0 | |
| 20260502190533 | 52 | 0.0 | 1.0 | 0.00 | 0.00 | 0.00 | 59 | 1006.0 | |
| 20260502185530 | 53 | 270 | 1.0 | 4.0 | 0.00 | 0.00 | 0.00 | 56 | 1006.1 |
| 20260502184530 | 55 | 270 | 1.0 | 3.0 | 0.00 | 0.00 | 0.00 | 52 | 1006.1 |
| 20260502183530 | 56 | 270 | 1.0 | 3.0 | 0.00 | 0.00 | 0.00 | 50 | 1006.0 |
| 20260502182610 | 57 | 270 | 1.0 | 7.0 | 0.00 | 0.00 | 0.00 | 48 | 1005.9 |
| 20260502181530 | 57 | 270 | 1.0 | 7.0 | 0.00 | 0.00 | 0.00 | 47 | 1005.9 |
| 20260502180530 | 58 | 270 | 2.0 | 7.0 | 0.00 | 0.00 | 0.00 | 46 | 1005.8 |
| 20260502163530 | 62 | 270 | 3.0 | 9.0 | 0.00 | 0.00 | 0.00 | 42 | 1005.8 |
| 20260502162529 | 63 | 270 | 4.0 | 12.0 | 0.00 | 0.00 | 0.00 | 40 | 1005.8 |
| 20260502161530 | 63 | 270 | 3.0 | 14.0 | 0.00 | 0.00 | 0.00 | 41 | 1005.8 |
| 20260502160530 | 63 | 270 | 5.0 | 15.0 | 0.00 | 0.00 | 0.00 | 40 | 1005.8 |
| 20260502151529 | 64 | 270 | 6.0 | 13.0 | 0.00 | 0.00 | 0.00 | 39 | 1005.9 |
| 20260502150530 | 64 | 270 | 3.0 | 8.0 | 0.00 | 0.00 | 0.00 | 39 | 1005.7 |
| 20260502130530 | 67 | 315 | 5.0 | 12.0 | 0.00 | 0.00 | 0.00 | 35 | 1005.9 |
| 20260502123550 | 68 | 270 | 2.0 | 9.0 | 0.00 | 0.00 | 0.00 | 35 | 1006.0 |
| 20260502122530 | 68 | 293 | 8.0 | 17.0 | 0.00 | 0.00 | 0.00 | 35 | 1006.1 |
| 20260502121530 | 68 | 293 | 7.0 | 16.0 | 0.00 | 0.00 | 0.00 | 35 | 1006.1 |
| 20260502120530 | 68 | 248 | 6.0 | 15.0 | 0.00 | 0.00 | 0.00 | 35 | 1006.3 |
| 20260502115550 | 68 | 293 | 2.0 | 9.0 | 0.00 | 0.00 | 0.00 | 35 | 1006.4 |
| 20260502113530 | 68 | 248 | 5.0 | 11.0 | 0.00 | 0.00 | 0.00 | 36 | 1006.4 |
| 20260502112531 | 68 | 248 | 5.0 | 12.0 | 0.00 | 0.00 | 0.00 | 35 | 1006.4 |
| 20260502111530 | 68 | 248 | 5.0 | 11.0 | 0.00 | 0.00 | 0.00 | 36 | 1006.6 |
| 20260502110551 | 68 | 270 | 5.0 | 22.0 | 0.00 | 0.00 | 0.00 | 36 | 1006.6 |
| 20260502105531 | 68 | 270 | 4.0 | 10.0 | 0.00 | 0.00 | 0.00 | 35 | 1006.8 |
| 20260502104530 | 68 | 248 | 6.0 | 19.0 | 0.00 | 0.00 | 0.00 | 36 | 1006.8 |
| 20260502103530 | 67 | 270 | 5.0 | 15.0 | 0.00 | 0.00 | 0.00 | 37 | 1006.9 |
| 20260502102529 | 67 | 248 | 4.0 | 14.0 | 0.00 | 0.00 | 0.00 | 37 | 1006.9 |
| 20260502101530 | 67 | 270 | 3.0 | 11.0 | 0.00 | 0.00 | 0.00 | 38 | 1007.0 |
| 20260502100530 | 66 | 225 | 6.0 | 15.0 | 0.00 | 0.00 | 0.00 | 40 | 1006.9 |
| 20260502091530 | 66 | 248 | 6.0 | 13.0 | 0.00 | 0.00 | 0.00 | 42 | 1007.3 |
| 20260502090530 | 66 | 293 | 4.0 | 19.0 | 0.00 | 0.00 | 0.00 | 43 | 1007.4 |
| 20260502071530 | 59 | 225 | 4.0 | 11.0 | 0.00 | 0.00 | 0.00 | 62 | 1008.2 |
| 20260502070550 | 58 | 203 | 3.0 | 14.0 | 0.00 | 0.00 | 0.00 | 65 | 1008.3 |
| 20260502065530 | 57 | 225 | 4.0 | 9.0 | 0.00 | 0.00 | 0.00 | 68 | 1008.2 |
| 20260502064530 | 56 | 180 | 4.0 | 9.0 | 0.00 | 0.00 | 0.00 | 68 | 1008.2 |
| 20260502063530 | 55 | 225 | 3.0 | 10.0 | 0.00 | 0.00 | 0.00 | 72 | 1008.3 |
| 20260502062530 | 54 | 180 | 2.0 | 5.0 | 0.00 | 0.00 | 0.00 | 74 | 1008.5 |
| 20260502061531 | 53 | 180 | 3.0 | 7.0 | 0.00 | 0.00 | 0.00 | 74 | 1008.6 |
| 20260502060532 | 53 | 158 | 5.0 | 9.0 | 0.00 | 0.00 | 0.00 | 74 | 1008.5 |
| 20260502055532 | 52 | 180 | 4.0 | 7.0 | 0.00 | 0.00 | 0.00 | 75 | 1008.6 |
| 20260502054530 | 52 | 180 | 4.0 | 7.0 | 0.00 | 0.00 | 0.00 | 74 | 1008.8 |
| 20260502053530 | 52 | 158 | 2.0 | 9.0 | 0.00 | 0.00 | 0.00 | 74 | 1009.0 |
| 20260502052550 | 51 | 270 | 2.0 | 6.0 | 0.00 | 0.00 | 0.00 | 76 | 1009.1 |
| 20260502051531 | 49 | 0.0 | 3.0 | 0.00 | 0.00 | 0.00 | 76 | 1009.1 | |
| 20260502050530 | 47 | 293 | 2.0 | 6.0 | 0.00 | 0.00 | 0.00 | 73 | 1009.2 |
| 20260502045531 | 45 | 0.0 | 0.0 | 0.00 | 0.00 | 0.00 | 53 | 1009.3 | |
| 20260502044531 | 43 | 0.0 | 0.0 | 0.00 | 0.00 | 0.00 | 45 | 1009.4 | |
| 20260502043550 | 42 | 0.0 | 0.0 | 0.00 | 0.00 | 0.00 | 29 | 1009.6 | |
| 20260502042530 | 41 | 293 | 2.0 | 4.0 | 0.00 | 0.00 | 0.00 | 1 | 1009.8 |
| 20260502041530 | 40 | 0.0 | 0.0 | 0.00 | 0.00 | 0.00 | 1 | 1009.9 | |
| 20260502040530 | 38 | 0.0 | 0.0 | 0.00 | 0.00 | 0.00 | 1 | 1009.9 | |
| 20260502035530 | 37 | 0.0 | 0.0 | 0.00 | 0.00 | 0.00 | 1 | 1009.8 | |
| 20260502034530 | 36 | 0.0 | 0.0 | 0.00 | 0.00 | 0.00 | 2 | 1009.8 | |
| 20260502033530 | 35 | 0.0 | 0.0 | 0.00 | 0.00 | 0.00 | 20 | 1009.6 |